Regional Weather Roundup
Issued by NWS

Home | Current Version | Previous Version | Graphics & Text | Print | Product List | Glossary On
Versions: 1 2 3 4 5 6 7 8 9 10 11 12 13 14 15 16 17 18 19 20 21 22 23 24 25 26 27
000
ASUS45 KCYS 181210
RWRWY

WYOMING REGIONAL WEATHER ROUNDUP
NATIONAL WEATHER SERVICE CHEYENNE WY
600 AM MDT FRI APR 18 2014

NOTE:  "FAIR" INDICATES FEW OR NO CLOUDS BELOW 12,000 FEET
WITH NO SIGNIFICANT WEATHER AND/OR OBSTRUCTIONS TO VISIBILITY.

WYZ001-181300-
YELLOWSTONE NATIONAL PARK

CITY           SKY/WX    TMP DP  RH WIND       PRES   REMARKS
LK YELLOWSTONE   N/A     32  32 100 CALM      29.89F
6HR MIN TEMP:  26; 6HR MAX TEMP:  34; 6HR PCP:  0.10;

W YELLOWSTONE  NOT AVBL

$$
WYZ002>013-054>058-071-098>099-181300-
NORTHERN WYOMING

CITY           SKY/WX    TMP DP  RH WIND       PRES   REMARKS
JACKSON        CLOUDY    36  32  87 N6        29.89S WCI  31
CODY           MOCLDY    48  34  57 SW10G17   29.77F
GREYBULL       CLOUDY    45  33  63 CALM      29.77S
6HR MIN TEMP:  41; 6HR MAX TEMP:  49;

WORLAND        CLOUDY    46  32  58 SE10      29.76F
6HR MIN TEMP:  38; 6HR MAX TEMP:  47;

SHERIDAN       MOCLDY    37  33  85 CALM      29.72F
6HR MIN TEMP:  34; 6HR MAX TEMP:  43;

BUFFALO        MOCLDY    45  27  49 SE6       29.76F
6HR MIN TEMP:  40; 6HR MAX TEMP:  49;

GILLETTE       MOCLDY    40  33  76 S16       29.77S WCI  31
6HR MIN TEMP:  39; 6HR MAX TEMP:  45;

HULETT         FAIR     N/A N/A N/A CALM      29.80
NEWCASTLE      FAIR      34  32  93 CALM      29.85

$$
WYZ014>020-022>026-101>103-181300-
CENTRAL WYOMING

CITY           SKY/WX    TMP DP  RH WIND       PRES   REMARKS
BIG PINEY      MOCLDY    33  23  66 E6        29.93F WCI  28
6HR MIN TEMP:  27; 6HR MAX TEMP:  37;

PINEDALE       CLOUDY    32  30  93 CALM      29.93F
DUBOIS         FAIR      37  28  70 NW12      29.86F WCI  30
LANDER         MOCLDY    43  25  49 VRB5      29.80F
6HR MIN TEMP:  41; 6HR MAX TEMP:  53;

RIVERTON       MOCLDY    37  23  56 E5        29.81F WCI  33
6HR MIN TEMP:  35; 6HR MAX TEMP:  47;

CASPER         CLOUDY    47  26  44 SW13      29.86S
6HR MIN TEMP:  39; 6HR MAX TEMP:  48;

DOUGLAS        CLOUDY    37  33  85 S6        29.87S WCI  32
6HR MIN TEMP:  36; 6HR MAX TEMP:  42;


$$
WYZ021-027>030-104>119-181300-
SOUTHERN WYOMING

CITY           SKY/WX    TMP DP  RH WIND       PRES   REMARKS
EVANSTON       MOCLDY    48  24  39 SW13      29.93F
6HR MIN TEMP:  45; 6HR MAX TEMP:  48;

KEMMERER       CLOUDY    45  23  42 S3        29.94S
FORT BRIDGER   FAIR      47  24  40 S7        29.96F
ROCK SPRINGS   CLOUDY    48  21  34 SW10      29.95S
6HR MIN TEMP:  42; 6HR MAX TEMP:  48;

DIXON          FAIR      35  25  67 CALM      30.04F
RAWLINS        PTCLDY    47  21  35 SW12G20   29.97F
6HR MIN TEMP:  44; 6HR MAX TEMP:  50;

SARATOGA       FAIR      37  23  56 S10G16    30.01F WCI  30
LARAMIE        PTCLDY    45  22  40 SW17G29   30.01F
6HR MIN TEMP:  35; 6HR MAX TEMP:  46;

CHEYENNE       PTCLDY    37  27  67 SW10      29.98F WCI  30
6HR MIN TEMP:  35; 6HR MAX TEMP:  42;

TORRINGTON     PTCLDY    40  34  79 E8        29.89F WCI  34
6HR MIN TEMP:  37; 6HR MAX TEMP:  46;

PINE BLUFFS    FAIR      34  32  93 S3        29.98S

$$



USA.gov is the U.S. government's official web portal to all federal, state and local government web resources and services.